Weather History for KFNT - April, 2014

Change the Weather History Date:

Saturday, April 12, 2014

  Actual Average Record
Temperature  
Mean Temperature 55 °F 45 °F  
Max Temperature 73 °F 56 °F 81 °F (1977)
Min Temperature 37 °F 34 °F 19 °F (1950)
Degree Days  
Heating Degree Days 10 20  
Month to date heating degree days 238 265  
Since 1 July heating degree days 6963 6310  
Cooling Degree Days 0 0  
Month to date cooling degree days 0 0  
Year to date cooling degree days 0 0  
Growing Degree Days 5 (Base 50)    
Moisture  
Dew Point 37 °F    
Average Humidity 53    
Maximum Humidity 83    
Minimum Humidity 23    
Precipitation  
Precipitation 0.22 in 0.10 in 1.03 in (1996)
Month to date precipitation 0.65 1.13  
Year to date precipitation 5.87 6.15  
Snow  
Snow 0.00 in 0.10 in 1.90 in ()
Month to date snowfall T 1.4  
Since 1 July snowfall 82.6 46.5  
Snow Depth 0.00 in    
Sea Level Pressure  
Sea Level Pressure 29.98 in    
Wind  
Wind Speed 10 mph (ESE)    
Max Wind Speed 30 mph    
Max Gust Speed 40 mph    
Visibility 10 miles    
Events Rain , Thunderstorm    
T = Trace of Precipitation, MM = Missing Value Source: NWS Daily Summary

Daily Weather History Graph

Daily Weather History Graph

Search for Another Location

Airport or City:

Trip Planner

Search our weather history database for the weather conditions in past years. The results will help you decide how hot, cold, wet, or windy it might be!

Date:

Astronomy

Apr. 12, 2014 Rise Set
Actual Time 6:58 AM EDT 8:14 PM EDT
Civil Twilight 6:28 AM EDT 8:43 PM EDT
Nautical Twilight 5:53 AM EDT 9:18 PM EDT
Astronomical Twilight 5:16 AM EDT 9:55 PM EDT
Moon 5:48 PM EDT (4/12) 5:28 AM EDT (4/12)
Length of Visible Light 14h 14m
Length of Day
13h 15m
Waxing Gibbous, 93% of the Moon is Illuminated
Apr 12
Waxing Gibbous
Apr 15
Full
Apr 22
Last Quarter
Apr 29
New
May 6
First Quarter

Hourly Weather History & Observations

Time (EDT) Temp. Windchill Dew Point Humidity Pressure Visibility Wind Dir Wind Speed Gust Speed Precip Events Conditions
12:53 AM 41.0 °F - 30.9 °F 67% 30.05 in 10.0 mi Calm Calm - N/A   Clear
1:53 AM 43.0 °F - 30.0 °F 60% 30.06 in 10.0 mi Calm Calm - N/A   Partly Cloudy
2:53 AM 42.1 °F 40.2 °F 30.9 °F 65% 30.08 in 10.0 mi SSW 3.5 mph - N/A   Mostly Cloudy
3:53 AM 42.1 °F - 32.0 °F 67% 30.08 in 10.0 mi Calm Calm - N/A   Partly Cloudy
4:53 AM 37.9 °F - 32.0 °F 79% 30.09 in 10.0 mi Calm Calm - N/A   Clear
5:53 AM 39.9 °F 37.8 °F 32.0 °F 73% 30.09 in 10.0 mi ENE 3.5 mph - N/A   Clear
6:53 AM 37.9 °F 33.5 °F 32.0 °F 79% 30.09 in 10.0 mi SE 5.8 mph - N/A   Clear
7:53 AM 43.0 °F 38.8 °F 34.0 °F 71% 30.12 in 10.0 mi NE 6.9 mph - N/A   Clear
8:53 AM 50.0 °F - 33.1 °F 52% 30.10 in 10.0 mi East 3.5 mph - N/A   Clear
9:53 AM 57.9 °F - 32.0 °F 37% 30.08 in 10.0 mi SE 9.2 mph - N/A   Clear
10:53 AM 63.0 °F - 33.1 °F 33% 30.06 in 10.0 mi SSE 5.8 mph - N/A   Clear
11:53 AM 66.9 °F - 32.0 °F 27% 30.04 in 10.0 mi South 6.9 mph - N/A   Clear
12:53 PM 70.0 °F - 30.9 °F 24% 30.01 in 10.0 mi Variable 5.8 mph - N/A   Clear
1:53 PM 71.1 °F - 32.0 °F 24% 29.99 in 10.0 mi South 17.3 mph 23.0 mph N/A   Partly Cloudy
2:53 PM 70.0 °F - 30.0 °F 23% 29.99 in 10.0 mi WSW 13.8 mph 21.9 mph N/A   Overcast
3:53 PM 70.0 °F - 30.0 °F 23% 29.96 in 10.0 mi SW 15.0 mph 21.9 mph N/A   Overcast
4:53 PM 68.0 °F - 35.1 °F 30% 29.88 in 10.0 mi SE 9.2 mph - N/A   Overcast
5:53 PM 66.9 °F - 37.9 °F 34% 29.85 in 10.0 mi South 8.1 mph - N/A   Mostly Cloudy
6:53 PM 60.1 °F - 43.0 °F 53% 29.86 in 10.0 mi NE 19.6 mph 28.8 mph 0.00 in Thunderstorm Overcast
7:17 PM 55.9 °F - 43.0 °F 62% 29.92 in 10.0 mi NNW 26.5 mph 40.3 mph N/A Thunderstorm Thunderstorm
7:27 PM 50.0 °F - 43.0 °F 77% 29.91 in 2.5 mi NNW 18.4 mph 34.5 mph 0.17 in Rain , Thunderstorm Heavy Thunderstorms and Rain
7:38 PM 50.0 °F - 45.0 °F 83% 29.89 in 6.0 mi South 9.2 mph - 0.19 in Rain , Thunderstorm Light Thunderstorms and Rain
7:53 PM 50.0 °F - 45.0 °F 83% 29.88 in 10.0 mi ENE 13.8 mph - 0.19 in Rain Light Rain
8:04 PM 50.0 °F - 45.0 °F 83% 29.87 in 10.0 mi NE 12.7 mph - 0.00 in Rain Light Rain
8:53 PM 50.0 °F - 45.0 °F 83% 29.86 in 9.0 mi East 16.1 mph - 0.00 in   Mostly Cloudy
9:53 PM 52.0 °F - 46.9 °F 83% 29.87 in 10.0 mi ENE 11.5 mph - N/A   Overcast
10:53 PM 51.1 °F - 46.0 °F 83% 29.88 in 9.0 mi ENE 10.4 mph - N/A   Mostly Cloudy
11:53 PM 51.1 °F - 46.0 °F 83% 29.90 in 10.0 mi NE 9.2 mph - N/A   Overcast